This demonstration page uses our WeatherBlox Daily Observations layout. Learn more.

Left ArrowRight Arrow

39.29038, -76.61219

Hourly Observations for October 24, 2020

Temp ( °F °C ) Dew Point ( °F °C ) Humidity (%) Winds ( mph kmh ) Pressure ( in mb ) Visibility ( mi km ) Precip ( " mm )
12:54 am 00:54 Partly Cloudy 60 15.6 57 13.9 90 90 Calm 30.01 1016 7 11 0.00 0.00
1:54 am 01:54 Mostly Clear 61 16.1 58 14.4 90 90 Calm 30.00 1016 7 11 0.00 0.00
2:44 am 02:44 Mostly Clear with Mist and Fog 59 15 57 13.9 93 93 Calm 29.99 1016 3 5 0.00 0.00
2:54 am 02:54 Mostly Clear with Mist and Fog 59 15 57 13.9 93 93 Calm 29.99 1016 3 5 0.00 0.00
3:23 am 03:23 Mostly Cloudy with Mist and Fog 58 14.4 57 13.9 97 97 Calm 29.98 1015 2 2 0.00 0.00
3:29 am 03:29 Mostly Cloudy with Fog 58 14.4 56 13.3 93 93 Calm 29.98 1015 1 1 0.00 0.00
3:54 am 03:54 Cloudy with Patchy Fog 59 15 58 14.4 96 96 ESE 3 6 29.97 1015 2 3 0.00 0.00
4:28 am 04:28 Cloudy with Fog 62 16.7 60 15.6 93 93 VRB 3 6 29.96 1015 3 5 0.00 0.00
4:54 am 04:54 Cloudy with Mist and Fog 62 16.7 60 15.6 93 93 S 6 9 29.95 1014 3 5 0.00 0.00
5:24 am 05:24 Cloudy with Mist and Fog 63 17.2 61 16.1 93 93 Calm 29.95 1014 4 6 0.00 0.00
5:54 am 05:54 Cloudy with Mist and Fog 63 17.2 61 16.1 93 93 SW 3 6 29.95 1014 5 8 0.00 0.00
6:54 am 06:54 Cloudy 63 17.2 60 15.6 90 90 SSW 5 7 29.96 1014 7 11 0.00 0.00
7:54 am 07:54 Cloudy 63 17.2 61 16.1 93 93 Calm 29.96 1015 10 16 0.00 0.00
8:54 am 08:54 Cloudy 65 18.3 61 16.1 87 87 SW 5 7 29.96 1015 10 16 0.00 0.00
9:45 am 09:45 Mostly Cloudy 67 19.4 61 16.1 81 81 Calm 29.97 1015 10 16 0.00 0.00
9:54 am 09:54 Mostly Cloudy 67 19.4 61 16.1 81 81 Calm 29.96 1015 10 16 0.00 0.00
10:54 am 10:54 Mostly Cloudy 70 21.1 61 16.1 73 73 W 7 11 29.96 1014 10 16 0.00 0.00
11:54 am 11:54 Mostly Cloudy 74 23.3 61 16.1 64 64 WNW 9 15 29.94 1014 10 16 0.00 0.00
12:54 pm 12:54 Cloudy 75 23.9 61 16.1 62 62 W 10 17 29.93 1014 10 16 0.00 0.00
1:54 pm 13:54 Mostly Cloudy 77 25 61 16.1 58 58 NW 9 15 29.91 1013 10 16 0.00 0.00
2:54 pm 14:54 Mostly Cloudy 76 24.4 61 16.1 60 60 NW 6 9 29.91 1013 10 16 0.00 0.00
3:54 pm 15:54 Mostly Cloudy 73 22.8 60 15.6 64 64 WNW 8 13 29.92 1013 10 16 0.00 0.00
4:54 pm 16:54 Mostly Cloudy 71 21.7 58 14.4 63 63 NW 7 11 29.94 1014 10 16 0.00 0.00
5:54 pm 17:54 Mostly Cloudy 69 20.6 54 12.2 59 59 NNW 7 11 29.96 1015 10 16 0.00 0.00
6:54 pm 18:54 Mostly Cloudy 67 19.4 53 11.7 61 61 NNW 7 11 29.98 1015 10 16 0.00 0.00
7:54 pm 19:54 Mostly Cloudy 66 18.9 51 10.6 59 59 N 5 7 30.01 1016 10 16 0.00 0.00
8:54 pm 20:54 Cloudy 62 16.7 49 9.4 62 62 N 9 15 30.04 1017 10 16 0.00 0.00
9:54 pm 21:54 Mostly Cloudy 60 15.6 46 7.8 60 60 N 8 13 30.05 1018 10 16 0.00 0.00
10:54 pm 22:54 Cloudy 59 15 45 7.2 60 60 N 10 17 30.08 1019 10 16 0.00 0.00
11:54 pm 23:54 Cloudy 58 14.4 41 5 53 53 N 8 13 30.10 1019 10 16 0.00 0.00

Powered by AerisWeather